Preview of NWS' New Version of Forecast
This preview is not operational and should not be used for support decisions.

Regional Weather Roundup (RWR)

Issued by National Weather Service (NWS)

                            
000
ASUS43 KMKX 200910
RWRWI 

WISCONSIN REGIONAL WEATHER ROUNDUP
NATIONAL WEATHER SERVICE MILWAUKEE/SULLIVAN WI
300 AM CST WED FEB 20 2019

NOTE: "FAIR" INDICATES FEW OR NO CLOUDS BELOW 12,000 FEET WITH NO
SIGNIFICANT WEATHER AND/OR OBSTRUCTIONS TO VISIBILITY.

WIZ001-002-006>008-014>016-023>028-201000-
NORTHWEST WISCONSIN
  
CITY           SKY/WX    TMP DP  RH WIND       PRES   REMARKS
SUPERIOR ARPT  FAIR       6   0  78 CALM      30.18F                  
ASHLAND        FAIR       9   0  67 SE3       30.20F                  
HAYWARD        FAIR      13   3  64 VRB3      30.14F                  
SIREN          CLOUDY    13   4  68 E3        30.13F                  
CUMBERLAND     CLOUDY    14   3  62 SE8       30.12F WCI   3          
RICE LAKE      CLOUDY    10   5  78 CALM      30.14F                  
CHETEK         CLOUDY    12   4  71 E3        30.14F                  
LADYSMITH      CLOUDY    14   7  73 E5        30.18F WCI   6          
EAU CLAIRE     CLOUDY    16   8  71 E6        30.14F WCI   7          
MENOMONIE      CLOUDY    13   4  68 E7        30.13F WCI   3          
NEW RICHMOND   CLOUDY    17   6  62 E7        30.10F WCI   7          
OSCEOLA        CLOUDY    17   8  67 E10       30.13F WCI   5          
$$
 
WIZ003>005-009-010-017-018-201000-
NORTH CENTRAL WISCONSIN
  
CITY           SKY/WX    TMP DP  RH WIND       PRES   REMARKS
MANITOWISH WTR NOT AVBL                                               
ARBOR VITAE    FAIR       9   6  87 SE3       30.15F                  
WOODRUFF       FAIR       9   6  87 SE3       30.15F                  
RHINELANDER    MOCLDY     7   1  76 E5        30.17F WCI  -2          
EAGLE RIVER    FAIR       1  -3  82 CALM      30.16F                  
LAND O LAKES   FAIR      -1  -4  86 CALM      30.18F                  
PHILLIPS       MOCLDY    10   4  75 E5        30.14F WCI   2          
TOMAHAWK       CLOUDY     4   1  86 CALM      30.17F                  
MEDFORD        CLOUDY    13   7  79 E6        30.15F WCI   3          
MERRILL        CLOUDY     8   3  82 CALM      30.19F                  
$$
 
WIZ029-030-035-036-043>047-201000-
CENTRAL WISCONSIN
  
CITY           SKY/WX    TMP DP  RH WIND       PRES   REMARKS
WAUSAU         CLOUDY    13   7  77 E7        30.18F WCI   3          
MOSINEE        MOCLDY    14  12  92 E6        30.20F WCI   5          
MARSHFIELD     CLOUDY    16  10  77 E7        30.15F WCI   6          
STEVENS POINT  CLOUDY    15  10  83 E3        30.19F                  
WAUPACA        CLOUDY    18  12  79 CALM      30.22F                  
WAUTOMA        CLOUDY    18  13  80 NE5       30.20  WCI  11          
WISC RAPIDS    CLOUDY    18   9  68 E5        30.19F WCI  11          
CAMP DOUGLAS   FAIR      20  15  80 E6        30.16F WCI  12          
$$
 
WIZ011>013-019>022-031-037>040-048>050-201000-
NORTHEAST WISCONSIN
  
CITY           SKY/WX    TMP DP  RH WIND       PRES   REMARKS
ANTIGO         CLOUDY    13   9  84 E5        30.17F WCI   5          
SHAWANO        FAIR      13   7  77 NE3       30.24F                  
OCONTO         MOCLDY    10   7  85 CALM      30.27F                  
STURGEON BAY   CLOUDY    17  12  80 CALM      30.28F                  
GREEN BAY      FAIR      19  12  74 NE6       30.24F WCI  11          
MANITOWOC      CLOUDY    18  13  80 CALM      30.25F                  
APPLETON       CLOUDY    19  10  68 NE5       30.19F WCI  13          
CLINTONVILLE   MOCLDY    15  10  80 NE3       30.22F                  
OSHKOSH        CLOUDY    19  14  81 E3        30.19F                  
$$
 
WIZ032>034-041-042-053>061-201000-
SOUTHWEST WISCONSIN
  
CITY           SKY/WX    TMP DP  RH WIND       PRES   REMARKS
LA CROSSE      LGT SNOW  22  17  81 E6        30.11F WCI  14          
SPARTA         CLOUDY    22  15  75 CALM      30.13F                  
VIROQUA        CLOUDY    20  20 100 E13       30.08F VSB 1   WCI   7  
BOSCOBEL       LGT SNOW  22  18  85 NE6       30.13F VSB 3/4 WCI  14  
PRAIRIE DU CHI LGT SNOW  24  21  90 E7        30.10F VSB 1   WCI  16  
PLATTEVILLE    CLOUDY    25  25 100 E13       30.10F WCI  13          
$$

WIZ056-057-062-063-064-067-068-201000-
SOUTH CENTRAL WISCONSIN
  
CITY           SKY/WX    TMP DP  RH WIND       PRES   REMARKS
REEDSBURG      LGT SNOW  20  18  89 NE5       30.15F WCI  14          
BARABOO/DELLS  LGT SNOW  20  16  83 E7        30.16F WCI  12          
LONE ROCK      LGT SNOW  25  22  88 E10       30.15F FOG     WCI  15  
MINERAL POINT  LGT SNOW  27  27 100 E10       30.09F WCI  17          
MADISON        LGT SNOW  25  19  78 E9        30.15F WCI  15          
MIDDLETON      CLOUDY    26  22  83 E10       30.15F WCI  17          
WATERTOWN      CLOUDY    27  22  81 E9        30.16F WCI  18          
MONROE         LGT SNOW  26  22  86 MISG      30.10F                  
JANESVILLE     CLOUDY    30  23  74 E14       30.15F WCI  20          
$$
 
WIZ051-052-058>065-066-070>072-201000-
SOUTHEAST WISCONSIN
  
CITY           SKY/WX    TMP DP  RH WIND       PRES   REMARKS
MILWAUKEE      CLOUDY    31  22  69 E14       30.19F WCI  21          
WAUKESHA       CLOUDY    28  21  74 E9        30.18F WCI  20          
MILWAUKEE/TIMM CLOUDY    30  19  64 E10       30.20F WCI  21          
RACINE         CLOUDY    30  23  75 E15       30.20F WCI  19          
KENOSHA        CLOUDY    31  24  75 E13       30.17F WCI  21          
FOND DU LAC    CLOUDY    22  16  78 NE5       30.19F WCI  16          
SHEBOYGAN      CLOUDY    22  17  81 NE5       30.22F WCI  16          
WEST BEND      FAIR      27  23  86 E7        30.19F WCI  19          
JUNEAU         CLOUDY    26  21  82 E9        30.17F WCI  16          
$$

LSZ147-162-201000-
LAKE SUPERIOR
  
STATION/POSITION TIME  TEMP    WIND        PRES    WAVE
                       AIR SEA DIR/SP/G            HT/PER
                 (UTC) (F)     (DEG/KT/KT) (MB)    (FT/S)
DEVILS ISLAND    0900   16     120/  5/  5 1023.9F
SAXON HARBOR     0840    5     180/  2/  3 1022.7F
$$
 
LMZ867-665-643>646-201000-
LAKE MICHIGAN
  
STATION/POSITION TIME  TEMP    WIND        PRES    WAVE
                       AIR SEA DIR/SP/G            HT/PER
                 (UTC) (F)     (DEG/KT/KT) (MB)    (FT/S)
NORTHPORT PIER   0840   14     310/  2/  2 1026.1F
KEWAUNEE LAKESHO 0836   15     340/  1/  3 1024.4F
SHEBOYGAN LAKESH 0900   30     120/ 18/ 20 1024.0F
PORT WASHINGTON  0830   32     120/ 11/ 15 1025.1F
MILWAUKEE LAKESH 0850   31     100/ 14/ 16   N/A
KENOSHA   LAKESH 0900   31     120/ 16/ 20 1021.7
$$

TC  - TEMPERATURE IN CELSIUS
VSB - VISIBILITY IN STATUTE MILES
WCI - WIND CHILL INDEX
HX  - HEAT INDEX